カタログに戻る

SL-8 DEB

運用中LEO
NORAD 27744·DEBRIS·🇷🇺 Russia

打ち上げ Feb 12, 1991 から Plesetsk Cosmodrome

Loading…

次のパス (今後24時間)

TLE

最新Source: Space-Track

元期: Sep 14, 2026, 09:42 UTC

1 27744U 91009CZ  26257.40425998 -.00000034  00000-0 -18068-3 0  9991
2 27744  74.0523 130.4274 0175455 184.9337 229.0460 12.18610051476487

AllMySatでSL-8 DEBをリアルタイム追跡

Download on the App Store